VLG16TX LEPA-LEAS

Flight info

Callsign VLG16TX
Flight time 1h 23m
Altitude 32000
Route DRAGO DCT PAPOS DCT UMURE DCT XIKEN DCT KARES DCT ARBEK DCT REBUL DCT GEMAS DCT ALOSU DCT GRAUS DCT POSSY DCT MARIO DCT SURCO DCT RONNY DCT RONKO DCT GOSVI DCT TURPU DCT PPN DCT MALOB DCT CEGAM DCT BLV M190 AMAKA
Aircraft A320/M-SDE3FGHIRWY/LB1

Departure

Time 2026-05-05 15:16
Airport Palma de Mallorca Airport (LEPA)

Arrival

Time 2026-05-05 16:39
Airport Asturias Airport (LEAS)
Time Latitude Longitude Altitude Speed Heading
2026-05-05 14:46 39.54493 2.73181 36 ft 0 kts 344°
2026-05-05 15:06 39.54487 2.73183 37 ft 4 kts 345°
2026-05-05 15:06 39.54466 2.73191 38 ft 3 kts 346°
2026-05-05 15:06 39.54425 2.73176 36 ft 4 kts 53°
2026-05-05 15:07 39.54413 2.73152 38 ft 1 kts 58°
2026-05-05 15:09 39.54418 2.73162 38 ft 5 kts 58°
2026-05-05 15:09 39.54453 2.73235 38 ft 14 kts 58°
2026-05-05 15:09 39.54518 2.73371 38 ft 21 kts 58°
2026-05-05 15:09 39.54590 2.73523 38 ft 19 kts 53°
2026-05-05 15:10 39.54655 2.73658 36 ft 17 kts 61°
2026-05-05 15:10 39.54710 2.73782 38 ft 15 kts 59°
2026-05-05 15:10 39.54763 2.73891 38 ft 13 kts 56°
2026-05-05 15:10 39.54813 2.73985 38 ft 12 kts 46°
2026-05-05 15:11 39.54879 2.73974 38 ft 9 kts 332°
2026-05-05 15:11 39.54930 2.73966 36 ft 6 kts 40°
2026-05-05 15:11 39.54953 2.74007 38 ft 6 kts 40°
2026-05-05 15:11 39.55009 2.73982 38 ft 10 kts 328°
2026-05-05 15:12 39.55094 2.73914 38 ft 21 kts 329°
2026-05-05 15:12 39.55237 2.73801 38 ft 25 kts 328°
2026-05-05 15:12 39.55386 2.73684 38 ft 25 kts 329°
2026-05-05 15:12 39.55521 2.73578 38 ft 22 kts 328°
2026-05-05 15:13 39.55642 2.73510 38 ft 16 kts 13°
2026-05-05 15:13 39.55705 2.73606 38 ft 14 kts 59°
2026-05-05 15:13 39.55775 2.73756 38 ft 24 kts 58°
2026-05-05 15:13 39.55866 2.73950 37 ft 24 kts 58°
2026-05-05 15:14 39.55949 2.74126 38 ft 22 kts 59°
2026-05-05 15:14 39.56033 2.74262 38 ft 18 kts 25°
2026-05-05 15:14 39.56136 2.74330 38 ft 15 kts 27°
2026-05-05 15:14 39.56221 2.74308 38 ft 12 kts 302°
2026-05-05 15:15 39.56203 2.74210 38 ft 12 kts 237°
2026-05-05 15:15 39.56143 2.74087 38 ft 29 kts 238°
2026-05-05 15:15 39.55901 2.73581 38 ft 99 kts 239°
2026-05-05 15:15 39.55441 2.72602 41 ft 153 kts 238°
2026-05-05 15:16 39.54866 2.71360 494 ft 162 kts 239°
2026-05-05 15:16 39.54265 2.70111 1228 ft 163 kts 236°
2026-05-05 15:16 39.53637 2.68871 1942 ft 168 kts 236°
2026-05-05 15:16 39.52968 2.67563 2391 ft 181 kts 236°
2026-05-05 15:17 39.52242 2.66142 2767 ft 197 kts 237°
2026-05-05 15:17 39.51467 2.64627 3191 ft 210 kts 237°
2026-05-05 15:17 39.50640 2.63007 3788 ft 216 kts 238°
2026-05-05 15:17 39.49815 2.61388 4511 ft 215 kts 238°
2026-05-05 15:18 39.49002 2.59793 5223 ft 215 kts 238°
2026-05-05 15:18 39.48175 2.58170 5929 ft 216 kts 238°
2026-05-05 15:18 39.47345 2.56544 6610 ft 218 kts 237°
2026-05-05 15:18 39.46510 2.54905 7308 ft 219 kts 237°
2026-05-05 15:19 39.45669 2.53258 8027 ft 220 kts 237°
2026-05-05 15:19 39.45005 2.51452 8590 ft 231 kts 262°
2026-05-05 15:19 39.45307 2.49385 9103 ft 248 kts 298°
2026-05-05 15:19 39.46560 2.47751 9613 ft 267 kts 318°
2026-05-05 15:20 39.48088 2.46251 10008 ft 284 kts 319°
2026-05-05 15:20 39.49713 2.44679 10392 ft 300 kts 319°
2026-05-05 15:20 39.51427 2.43014 10741 ft 317 kts 319°
2026-05-05 15:20 39.53233 2.41249 11081 ft 333 kts 319°
2026-05-05 15:21 39.55077 2.39366 11623 ft 338 kts 312°
2026-05-05 15:21 39.56715 2.37174 12328 ft 340 kts 309°
2026-05-05 15:21 39.58350 2.34949 13048 ft 342 kts 308°
2026-05-05 15:21 39.59996 2.32709 13751 ft 345 kts 308°
2026-05-05 15:22 39.61657 2.30447 14376 ft 347 kts 308°
2026-05-05 15:22 39.63329 2.28167 14994 ft 349 kts 308°
2026-05-05 15:22 39.65006 2.25875 15621 ft 351 kts 307°
2026-05-05 15:22 39.66689 2.23569 16244 ft 353 kts 307°
2026-05-05 15:23 39.68384 2.21246 16856 ft 355 kts 307°
2026-05-05 15:23 39.70091 2.18910 17475 ft 357 kts 307°
2026-05-05 15:23 39.71804 2.16562 18075 ft 359 kts 306°
2026-05-05 15:23 39.73530 2.14196 18611 ft 362 kts 306°
2026-05-05 15:24 39.75261 2.11818 19118 ft 364 kts 306°
2026-05-05 15:24 39.77006 2.09420 19627 ft 366 kts 306°
2026-05-05 15:24 39.78765 2.07002 20141 ft 369 kts 306°
2026-05-05 15:24 39.80531 2.04572 20651 ft 371 kts 306°
2026-05-05 15:25 39.82286 2.02156 21149 ft 374 kts 305°
2026-05-05 15:25 39.84076 1.99686 21667 ft 376 kts 305°
2026-05-05 15:25 39.85773 1.97346 22146 ft 378 kts 305°
2026-05-05 15:25 39.87582 1.94849 22648 ft 380 kts 305°
2026-05-05 15:26 39.89401 1.92338 23141 ft 382 kts 304°
2026-05-05 15:26 39.91229 1.89811 23593 ft 384 kts 304°
2026-05-05 15:26 39.93060 1.87271 23984 ft 386 kts 304°
2026-05-05 15:26 39.94899 1.84714 24357 ft 387 kts 304°
2026-05-05 15:27 39.96746 1.82145 24723 ft 390 kts 304°
2026-05-05 15:27 39.98608 1.79571 25083 ft 393 kts 305°
2026-05-05 15:27 40.00715 1.77214 25439 ft 406 kts 315°
2026-05-05 15:27 40.03199 1.75338 25784 ft 421 kts 326°
2026-05-05 15:28 40.05955 1.73904 26103 ft 428 kts 329°
2026-05-05 15:28 40.08743 1.72495 26409 ft 431 kts 328°
2026-05-05 15:28 40.11544 1.71069 26727 ft 433 kts 328°
2026-05-05 15:28 40.14315 1.69644 27028 ft 435 kts 328°
2026-05-05 15:29 40.17139 1.68187 27329 ft 437 kts 328°
2026-05-05 15:29 40.19975 1.66722 27633 ft 439 kts 328°
2026-05-05 15:29 40.22825 1.65253 27932 ft 442 kts 328°
2026-05-05 15:29 40.25691 1.63778 28225 ft 444 kts 328°
2026-05-05 15:30 40.28571 1.62295 28509 ft 446 kts 327°
2026-05-05 15:30 40.31467 1.60800 28786 ft 448 kts 327°
2026-05-05 15:30 40.34372 1.59298 29059 ft 450 kts 327°
2026-05-05 15:30 40.37294 1.57789 29323 ft 452 kts 327°
2026-05-05 15:31 40.40231 1.56270 29582 ft 454 kts 327°
2026-05-05 15:31 40.43172 1.54743 29837 ft 456 kts 327°
2026-05-05 15:31 40.46125 1.53210 30058 ft 458 kts 327°
2026-05-05 15:31 40.49094 1.51669 30261 ft 460 kts 327°
2026-05-05 15:32 40.52074 1.50123 30457 ft 461 kts 327°
2026-05-05 15:32 40.55063 1.48570 30643 ft 463 kts 327°
2026-05-05 15:32 40.58065 1.47009 30824 ft 464 kts 327°
2026-05-05 15:32 40.61072 1.45444 31018 ft 465 kts 327°
2026-05-05 15:33 40.64082 1.43879 31270 ft 465 kts 327°
2026-05-05 15:33 40.67094 1.42316 31524 ft 465 kts 327°
2026-05-05 15:33 40.70097 1.40753 31765 ft 465 kts 327°
2026-05-05 15:33 40.73106 1.39181 31889 ft 462 kts 327°
2026-05-05 15:34 40.76012 1.37675 31909 ft 449 kts 327°
2026-05-05 15:34 40.81808 1.34648 31903 ft 448 kts 327°
2026-05-05 15:35 40.87609 1.31579 31909 ft 449 kts 327°
2026-05-05 15:35 40.93415 1.28507 31913 ft 450 kts 327°
2026-05-05 15:36 40.99232 1.25438 31919 ft 450 kts 327°
2026-05-05 15:36 41.05061 1.22361 31930 ft 451 kts 327°
2026-05-05 15:37 41.10891 1.19278 31939 ft 451 kts 327°
2026-05-05 15:37 41.17001 1.16930 31935 ft 471 kts 343°
2026-05-05 15:38 41.23602 1.16226 31935 ft 477 kts 346°
2026-05-05 15:38 41.30223 1.15540 31926 ft 478 kts 346°
2026-05-05 15:39 41.36836 1.14826 31935 ft 477 kts 347°
2026-05-05 15:39 41.43417 1.14129 31926 ft 477 kts 346°
2026-05-05 15:40 41.50032 1.13440 31929 ft 477 kts 346°
2026-05-05 15:40 41.56688 1.12733 31926 ft 477 kts 346°
2026-05-05 15:41 41.63147 1.11589 31926 ft 461 kts 333°
2026-05-05 15:41 41.66096 1.10099 31921 ft 446 kts 323°
2026-05-05 15:41 41.68728 1.08033 31915 ft 433 kts 314°
2026-05-05 15:41 41.71017 1.05501 31921 ft 421 kts 304°
2026-05-05 15:42 41.72916 1.02599 31915 ft 409 kts 296°
2026-05-05 15:42 41.74402 0.99418 31917 ft 398 kts 288°
2026-05-05 15:42 41.75662 0.96117 31921 ft 398 kts 288°
2026-05-05 15:43 41.78194 0.89506 31919 ft 399 kts 288°
2026-05-05 15:43 41.80730 0.82886 31926 ft 400 kts 288°
2026-05-05 15:44 41.83272 0.76245 31919 ft 401 kts 289°
2026-05-05 15:44 41.85811 0.69591 31925 ft 402 kts 289°
2026-05-05 15:45 41.88354 0.62913 31929 ft 403 kts 289°
2026-05-05 15:45 41.90903 0.56207 31932 ft 403 kts 289°
2026-05-05 15:46 41.93443 0.49482 31940 ft 404 kts 289°
2026-05-05 15:46 41.95984 0.42749 31936 ft 405 kts 290°
2026-05-05 15:47 41.98528 0.36003 31948 ft 405 kts 290°
2026-05-05 15:47 42.01069 0.29237 31947 ft 406 kts 290°
2026-05-05 15:48 42.03610 0.22455 31948 ft 406 kts 290°
2026-05-05 15:48 42.06157 0.15660 31942 ft 407 kts 290°
2026-05-05 15:49 42.08687 0.08893 31940 ft 407 kts 290°
2026-05-05 15:49 42.11228 0.02074 31936 ft 408 kts 290°
2026-05-05 15:50 42.13765 -0.04764 31933 ft 408 kts 290°
2026-05-05 15:50 42.15635 -0.09816 31936 ft 408 kts 291°
2026-05-05 15:51 42.18171 -0.16668 31940 ft 409 kts 291°
2026-05-05 15:51 42.20703 -0.23531 31943 ft 409 kts 291°
2026-05-05 15:52 42.23226 -0.30408 31936 ft 410 kts 291°
2026-05-05 15:52 42.25751 -0.37285 31939 ft 409 kts 291°
2026-05-05 15:53 42.28277 -0.44157 31936 ft 409 kts 291°
2026-05-05 15:53 42.30793 -0.51036 31937 ft 409 kts 291°
2026-05-05 15:54 42.33300 -0.57930 31938 ft 409 kts 291°
2026-05-05 15:54 42.35809 -0.64825 31941 ft 409 kts 291°
2026-05-05 15:55 42.38314 -0.71723 31939 ft 409 kts 291°
2026-05-05 15:55 42.40810 -0.78628 31937 ft 409 kts 291°
2026-05-05 15:56 42.43290 -0.85496 31942 ft 409 kts 291°
2026-05-05 15:56 42.45780 -0.92414 31942 ft 409 kts 292°
2026-05-05 15:57 42.48260 -0.99339 31950 ft 409 kts 292°
2026-05-05 15:57 42.50745 -1.06267 31958 ft 409 kts 292°
2026-05-05 15:58 42.53232 -1.13197 31959 ft 409 kts 292°
2026-05-05 15:58 42.55706 -1.20135 31969 ft 409 kts 292°
2026-05-05 15:59 42.58178 -1.27079 31975 ft 409 kts 292°
2026-05-05 15:59 42.60639 -1.34031 31992 ft 409 kts 292°
2026-05-05 16:00 42.63102 -1.40997 32004 ft 409 kts 292°
2026-05-05 16:00 42.65567 -1.47961 32015 ft 409 kts 292°
2026-05-05 16:01 42.68026 -1.54937 32024 ft 408 kts 292°
2026-05-05 16:01 42.70479 -1.61903 32024 ft 409 kts 292°
2026-05-05 16:02 42.72909 -1.68836 32015 ft 409 kts 292°
2026-05-05 16:02 42.75870 -1.75478 32011 ft 412 kts 299°
2026-05-05 16:03 42.78961 -1.82042 32007 ft 412 kts 299°
2026-05-05 16:03 42.82047 -1.88619 32003 ft 412 kts 299°
2026-05-05 16:04 42.85126 -1.95191 31754 ft 412 kts 299°
2026-05-05 16:04 42.86671 -1.98486 32006 ft 412 kts 299°
2026-05-05 16:04 42.88211 -2.01778 32008 ft 412 kts 299°
2026-05-05 16:05 42.91288 -2.08376 32018 ft 412 kts 299°
2026-05-05 16:05 42.94357 -2.14977 32021 ft 412 kts 299°
2026-05-05 16:06 42.97425 -2.21593 32013 ft 412 kts 299°
2026-05-05 16:06 43.00505 -2.28206 32023 ft 413 kts 300°
2026-05-05 16:07 43.03611 -2.34802 32018 ft 413 kts 300°
2026-05-05 16:07 43.06719 -2.41404 32017 ft 413 kts 300°
2026-05-05 16:08 43.09806 -2.48008 32027 ft 412 kts 300°
2026-05-05 16:08 43.12887 -2.54625 32032 ft 412 kts 300°
2026-05-05 16:09 43.15966 -2.61242 32032 ft 412 kts 300°
2026-05-05 16:09 43.19018 -2.67818 32033 ft 412 kts 300°
2026-05-05 16:10 43.22084 -2.74445 32032 ft 411 kts 300°
2026-05-05 16:10 43.25148 -2.81071 32035 ft 411 kts 300°
2026-05-05 16:11 43.28201 -2.87704 32032 ft 411 kts 300°
2026-05-05 16:11 43.31324 -2.98486 32024 ft 407 kts 280°
2026-05-05 16:12 43.31891 -3.02291 32015 ft 407 kts 281°
2026-05-05 16:13 43.34746 -3.21368 32030 ft 408 kts 280°
2026-05-05 16:13 43.35883 -3.28994 32023 ft 408 kts 280°
2026-05-05 16:14 43.38161 -3.44263 32020 ft 408 kts 281°
2026-05-05 16:15 43.40450 -3.59489 32035 ft 408 kts 281°
2026-05-05 16:16 43.42708 -3.74750 31175 ft 404 kts 280°
2026-05-05 16:17 43.43808 -3.82240 30209 ft 395 kts 280°
2026-05-05 16:17 43.44348 -3.85917 29672 ft 390 kts 280°
2026-05-05 16:18 43.45170 -3.93153 28740 ft 376 kts 274°
2026-05-05 16:18 43.45391 -3.96716 28279 ft 371 kts 274°
2026-05-05 16:18 43.45825 -4.03701 27398 ft 361 kts 274°
2026-05-05 16:19 43.46037 -4.07120 26967 ft 357 kts 274°
2026-05-05 16:19 43.46244 -4.10500 26563 ft 352 kts 274°
2026-05-05 16:19 43.46649 -4.17141 25749 ft 344 kts 274°
2026-05-05 16:20 43.47040 -4.23577 24922 ft 336 kts 274°
2026-05-05 16:20 43.47424 -4.29961 24092 ft 329 kts 274°
2026-05-05 16:21 43.47786 -4.36203 23215 ft 324 kts 273°
2026-05-05 16:22 43.48216 -4.45308 21986 ft 315 kts 272°
2026-05-05 16:22 43.48487 -4.51299 21196 ft 312 kts 273°
2026-05-05 16:23 43.48799 -4.57222 20413 ft 308 kts 274°
2026-05-05 16:23 43.48964 -4.60157 20027 ft 307 kts 274°
2026-05-05 16:23 43.49291 -4.65979 19278 ft 303 kts 274°
2026-05-05 16:24 43.49450 -4.68869 18896 ft 302 kts 273°
2026-05-05 16:24 43.49604 -4.71750 18524 ft 301 kts 273°
2026-05-05 16:24 43.49902 -4.77465 17751 ft 297 kts 273°
2026-05-05 16:25 43.50047 -4.80295 17385 ft 296 kts 273°
2026-05-05 16:25 43.50337 -4.85915 16673 ft 293 kts 274°
2026-05-05 16:25 43.50485 -4.88704 16321 ft 291 kts 274°
2026-05-05 16:26 43.50799 -4.94233 15623 ft 288 kts 274°
2026-05-05 16:26 43.51111 -4.99707 14925 ft 285 kts 274°
2026-05-05 16:27 43.51264 -5.02426 14577 ft 284 kts 274°
2026-05-05 16:27 43.51418 -5.05145 14192 ft 285 kts 274°
2026-05-05 16:27 43.51568 -5.07832 13836 ft 285 kts 274°
2026-05-05 16:27 43.51719 -5.10555 13458 ft 283 kts 274°
2026-05-05 16:28 43.51868 -5.13256 13110 ft 281 kts 274°
2026-05-05 16:28 43.52015 -5.15925 12753 ft 279 kts 274°
2026-05-05 16:28 43.52160 -5.18586 12405 ft 277 kts 274°
2026-05-05 16:28 43.52301 -5.21226 12054 ft 275 kts 274°
2026-05-05 16:29 43.52440 -5.23848 11697 ft 274 kts 274°
2026-05-05 16:29 43.52581 -5.26456 11344 ft 272 kts 274°
2026-05-05 16:29 43.52720 -5.29047 10993 ft 271 kts 275°
2026-05-05 16:29 43.52812 -5.31632 10635 ft 269 kts 268°
2026-05-05 16:30 43.52555 -5.34179 10274 ft 269 kts 258°
2026-05-05 16:30 43.52141 -5.36682 10035 ft 272 kts 258°
2026-05-05 16:30 43.51723 -5.39277 9858 ft 279 kts 258°
2026-05-05 16:30 43.51307 -5.41877 9323 ft 281 kts 259°
2026-05-05 16:31 43.50881 -5.44522 8974 ft 277 kts 258°
2026-05-05 16:31 43.50469 -5.47071 8536 ft 276 kts 258°
2026-05-05 16:31 43.50054 -5.49646 8112 ft 275 kts 259°
2026-05-05 16:31 43.49640 -5.52211 7691 ft 274 kts 259°
2026-05-05 16:32 43.49226 -5.54760 7284 ft 272 kts 259°
2026-05-05 16:32 43.48812 -5.57289 6837 ft 268 kts 258°
2026-05-05 16:32 43.48409 -5.59739 6392 ft 257 kts 259°
2026-05-05 16:32 43.48024 -5.62100 5867 ft 250 kts 259°
2026-05-05 16:33 43.47663 -5.64417 5301 ft 244 kts 264°
2026-05-05 16:33 43.47679 -5.66691 4910 ft 231 kts 281°
2026-05-05 16:33 43.48071 -5.68788 4729 ft 221 kts 288°
2026-05-05 16:33 43.48541 -5.70746 4600 ft 210 kts 289°
2026-05-05 16:34 43.48999 -5.72631 4377 ft 206 kts 289°
2026-05-05 16:34 43.49449 -5.74498 4090 ft 205 kts 288°
2026-05-05 16:34 43.49885 -5.76316 4002 ft 194 kts 288°
2026-05-05 16:34 43.50291 -5.78008 4016 ft 179 kts 288°
2026-05-05 16:35 43.50679 -5.79630 3830 ft 177 kts 288°
2026-05-05 16:35 43.51064 -5.81237 3612 ft 176 kts 288°
2026-05-05 16:35 43.51447 -5.82836 3379 ft 175 kts 288°
2026-05-05 16:35 43.51820 -5.84399 3152 ft 172 kts 288°
2026-05-05 16:36 43.52190 -5.85946 2924 ft 168 kts 289°
2026-05-05 16:36 43.52551 -5.87458 2692 ft 161 kts 288°
2026-05-05 16:36 43.52888 -5.88873 2486 ft 154 kts 288°
2026-05-05 16:36 43.53222 -5.90274 2277 ft 154 kts 288°
2026-05-05 16:37 43.53555 -5.91671 2067 ft 153 kts 288°
2026-05-05 16:37 43.53874 -5.93007 1868 ft 138 kts 288°
2026-05-05 16:37 43.54164 -5.94228 1686 ft 133 kts 289°
2026-05-05 16:37 43.54453 -5.95439 1499 ft 133 kts 289°
2026-05-05 16:38 43.54741 -5.96652 1320 ft 133 kts 288°
2026-05-05 16:38 43.55027 -5.97858 1129 ft 133 kts 288°
2026-05-05 16:38 43.55311 -5.99065 956 ft 133 kts 290°
2026-05-05 16:38 43.55606 -6.00277 728 ft 134 kts 291°
2026-05-05 16:39 43.55897 -6.01497 578 ft 134 kts 289°
2026-05-05 16:39 43.56178 -6.02707 429 ft 127 kts 290°
2026-05-05 16:39 43.56384 -6.03567 416 ft 52 kts 288°
2026-05-05 16:39 43.56474 -6.03956 417 ft 39 kts 285°
2026-05-05 16:40 43.56485 -6.04258 415 ft 18 kts 259°
2026-05-05 16:40 43.56421 -6.04358 420 ft 15 kts 159°
2026-05-05 16:40 43.56376 -6.04243 419 ft 14 kts 108°
2026-05-05 16:40 43.56334 -6.04058 416 ft 25 kts 107°
2026-05-05 16:41 43.56272 -6.03804 421 ft 28 kts 109°
2026-05-05 16:41 43.56212 -6.03563 419 ft 26 kts 111°
2026-05-05 16:41 43.56166 -6.03363 421 ft 20 kts 107°
2026-05-05 16:41 43.56127 -6.03238 420 ft 10 kts 138°
2026-05-05 16:42 43.56074 -6.03229 426 ft 7 kts 182°
2026-05-05 16:42 43.56030 -6.03246 420 ft 6 kts 206°
2026-05-05 16:42 43.56018 -6.03264 426 ft 1 kts 233°
2026-05-05 16:42 43.56017 -6.03267 426 ft 1 kts 236°
2026-05-05 16:43 43.56015 -6.03271 426 ft 0 kts 237°